• In Hungary
  • List of Countries
  • For 7 days
  • Water Temperature
  • Satellite Maps
  • Weather Map
  • News
  • Weather Widgets
  • user-avatar
    Login

    Hourly Weather Rodnichok

    Today, 14 November, Wednesday

    Time Temperature Precipitation Wind Pressure Humidity
    00:00 -8°C° 0 mm 3 mps 766 mmHg 33%
    01:00 -9°C° 0 mm 3 mps 765 mmHg 34%
    02:00 -9°C° 0 mm 3 mps 765 mmHg 34%
    03:00 -9°C° 0 mm 3 mps 765 mmHg 38%
    04:00 -9°C° 0 mm 3 mps 765 mmHg 39%
    05:00 -9°C° 0 mm 3 mps 764 mmHg 39%
    06:00 -10°C° 0 mm 3 mps 764 mmHg 39%
    07:00 -10°C° 0 mm 4 mps 764 mmHg 38%
    08:00 -10°C° 0 mm 4 mps 763 mmHg 37%
    09:00 -9°C° 0 mm 4 mps 763 mmHg 36%
    10:00 -8°C° 0 mm 4 mps 763 mmHg 35%
    11:00 -5°C° 0 mm 4 mps 763 mmHg 35%
    12:00 -4°C° 0 mm 4 mps 762 mmHg 35%
    13:00 -4°C° 0 mm 4 mps 762 mmHg 37%
    14:00 -3°C° 0 mm 4 mps 762 mmHg 38%
    15:00 -3°C° 0 mm 4 mps 761 mmHg 39%
    16:00 -4°C° 0 mm 4 mps 761 mmHg 41%
    17:00 -5°C° 0 mm 4 mps 761 mmHg 43%
    18:00 -5°C° 0 mm 4 mps 761 mmHg 45%
    19:00 -7°C° 0 mm 4 mps 761 mmHg 42%
    20:00 -7°C° 0 mm 4 mps 761 mmHg 39%
    21:00 -7°C° 0 mm 4 mps 761 mmHg 36%
    22:00 -7°C° 0 mm 4 mps 761 mmHg 35%
    23:00 -7°C° 0 mm 4 mps 761 mmHg 34%

    Tomorrow, 15 November, Thursday

    Time Temperature Precipitation Wind Pressure Humidity
    00:00 -7°C° 0 mm 3 mps 761 mmHg 33%
    01:00 -7°C° 0 mm 3 mps 761 mmHg 33%
    02:00 -7°C° 0 mm 3 mps 761 mmHg 33%
    03:00 -7°C° 0 mm 3 mps 761 mmHg 32%
    04:00 -7°C° 0 mm 3 mps 761 mmHg 33%
    05:00 -7°C° 0 mm 3 mps 761 mmHg 33%
    06:00 -7°C° 0 mm 3 mps 761 mmHg 33%
    07:00 -7°C° 0 mm 3 mps 761 mmHg 32%
    08:00 -8°C° 0 mm 4 mps 761 mmHg 31%
    09:00 -7°C° 0 mm 4 mps 762 mmHg 29%
    10:00 -5°C° 0 mm 4 mps 762 mmHg 27%
    11:00 -4°C° 0 mm 4 mps 762 mmHg 25%
    12:00 -3°C° 0 mm 4 mps 762 mmHg 22%
    13:00 -3°C° 0 mm 4 mps 762 mmHg 22%
    14:00 -2°C° 0 mm 4 mps 762 mmHg 22%
    15:00 -2°C° 0 mm 4 mps 762 mmHg 22%
    16:00 -3°C° 0 mm 4 mps 762 mmHg 24%
    17:00 -4°C° 0 mm 4 mps 762 mmHg 27%
    18:00 -5°C° 0 mm 4 mps 763 mmHg 29%
    19:00 -5°C° 0 mm 4 mps 763 mmHg 30%
    20:00 -5°C° 0 mm 3 mps 763 mmHg 30%
    21:00 -6°C° 0 mm 3 mps 763 mmHg 30%
    22:00 -6°C° 0 mm 3 mps 764 mmHg 31%
    23:00 -6°C° 0 mm 3 mps 764 mmHg 31%

    Day after tomorrow, 16 November, Friday

    Time Temperature Precipitation Wind Pressure Humidity
    00:00 -6°C° 0 mm 3 mps 764 mmHg 31%
    01:00 -6°C° 0 mm 3 mps 764 mmHg 31%
    02:00 -6°C° 0 mm 3 mps 764 mmHg 31%
    03:00 -7°C° 0 mm 3 mps 764 mmHg 31%
    04:00 -7°C° 0 mm 3 mps 765 mmHg 31%
    05:00 -7°C° 0 mm 3 mps 765 mmHg 31%
    06:00 -7°C° 0 mm 3 mps 765 mmHg 31%
    07:00 -7°C° 0 mm 4 mps 765 mmHg 29%
    08:00 -7°C° 0 mm 4 mps 765 mmHg 28%
    09:00 -7°C° 0 mm 4 mps 766 mmHg 26%
    10:00 -4°C° 0 mm 4 mps 766 mmHg 24%
    11:00 -3°C° 0 mm 4 mps 766 mmHg 22%
    12:00 -2°C° 0 mm 4 mps 765 mmHg 20%
    13:00 -2°C° 0 mm 4 mps 765 mmHg 21%
    14:00 -2°C° 0 mm 4 mps 765 mmHg 21%
    15:00 -2°C° 0 mm 4 mps 765 mmHg 22%
    16:00 -3°C° 0 mm 4 mps 765 mmHg 24%
    17:00 -4°C° 0 mm 4 mps 765 mmHg 26%
    18:00 -5°C° 0 mm 4 mps 765 mmHg 28%
    19:00 -5°C° 0 mm 4 mps 765 mmHg 28%
    20:00 -5°C° 0 mm 3 mps 765 mmHg 28%
    21:00 -5°C° 0 mm 3 mps 765 mmHg 28%
    22:00 -5°C° 0 mm 3 mps 765 mmHg 28%
    23:00 -6°C° 0 mm 3 mps 765 mmHg 29%

    17 November, Saturday

    Time Temperature Precipitation Wind Pressure Humidity
    00:00 -6°C° 0 mm 3 mps 765 mmHg 29%
    01:00 -6°C° 0 mm 3 mps 765 mmHg 29%
    02:00 -6°C° 0 mm 3 mps 765 mmHg 29%
    03:00 -6°C° 0 mm 3 mps 765 mmHg 29%
    04:00 -6°C° 0 mm 3 mps 764 mmHg 28%
    05:00 -7°C° 0 mm 3 mps 764 mmHg 28%
    06:00 -7°C° 0 mm 3 mps 764 mmHg 28%
    07:00 -6°C° 0 mm 3 mps 764 mmHg 26%
    08:00 -6°C° 0 mm 3 mps 764 mmHg 25%
    09:00 -5°C° 0 mm 3 mps 764 mmHg 24%
    10:00 -4°C° 0 mm 3 mps 763 mmHg 22%
    11:00 -2°C° 0 mm 2 mps 763 mmHg 20%
    12:00 +1°C° 0 mm 2 mps 763 mmHg 18%
    13:00 +1°C° 0 mm 2 mps 762 mmHg 20%
    14:00 +1°C° 0 mm 2 mps 762 mmHg 21%
    15:00 +1°C° 0 mm 2 mps 761 mmHg 23%
    16:00 -1°C° 0 mm 2 mps 761 mmHg 23%
    17:00 -2°C° 0 mm 2 mps 760 mmHg 24%
    18:00 -1°C° 0 mm 1 mps 760 mmHg 25%
    19:00 -1°C° 0 mm 1 mps 760 mmHg 24%
    20:00 -2°C° 0 mm 1 mps 759 mmHg 24%
    21:00 -2°C° 0 mm 1 mps 759 mmHg 23%
    22:00 -2°C° 0 mm 1 mps 758 mmHg 23%
    23:00 -2°C° 0 mm 1 mps 758 mmHg 23%

    18 November, Sunday

    Time Temperature Precipitation Wind Pressure Humidity
    00:00 -2°C° 0 mm 1 mps 757 mmHg 23%
    01:00 -2°C° 0 mm 1 mps 756 mmHg 23%
    02:00 -5°C° 0 mm 2 mps 756 mmHg 23%
    03:00 -5°C° 0 mm 2 mps 755 mmHg 24%
    04:00 -5°C° 0 mm 2 mps 754 mmHg 24%
    05:00 -5°C° 0 mm 2 mps 754 mmHg 24%
    06:00 -5°C° 0 mm 2 mps 753 mmHg 25%
    07:00 -5°C° 0 mm 2 mps 752 mmHg 24%
    08:00 -6°C° 0 mm 3 mps 752 mmHg 23%
    09:00 -5°C° 0 mm 3 mps 751 mmHg 23%
    10:00 -4°C° 0 mm 3 mps 751 mmHg 21%
    11:00 -2°C° 0 mm 3 mps 751 mmHg 20%
    12:00 -1°C° 0 mm 3 mps 750 mmHg 19%
    13:00 -1°C° 0 mm 3 mps 750 mmHg 20%
    14:00 -1°C° 0 mm 3 mps 749 mmHg 21%
    15:00 -1°C° 0 mm 3 mps 749 mmHg 22%
    16:00 -2°C° 0 mm 3 mps 749 mmHg 24%
    17:00 -4°C° 0 mm 3 mps 748 mmHg 26%
    18:00 -3°C° 0 mm 2 mps 748 mmHg 28%
    19:00 -3°C° 0 mm 2 mps 748 mmHg 29%
    20:00 -4°C° 0 mm 2 mps 748 mmHg 30%
    21:00 -4°C° 0 mm 2 mps 748 mmHg 31%
    22:00 -4°C° 0 mm 2 mps 748 mmHg 33%
    23:00 -4°C° 0 mm 2 mps 748 mmHg 34%

    19 November, Monday

    Time Temperature Precipitation Wind Pressure Humidity
    00:00 -4°C° 0 mm 2 mps 748 mmHg 36%
    01:00 -4°C° 0 mm 2 mps 748 mmHg 38%
    02:00 -4°C° 0 mm 2 mps 748 mmHg 40%
    03:00 -5°C° 0 mm 3 mps 748 mmHg 42%
    04:00 -5°C° 0 mm 3 mps 749 mmHg 44%
    05:00 -5°C° 0 mm 3 mps 749 mmHg 47%
    06:00 -5°C° 0 mm 3 mps 749 mmHg 49%
    07:00 -5°C° 0 mm 3 mps 749 mmHg 49%
    08:00 -5°C° 0 mm 3 mps 750 mmHg 49%
    09:00 -4°C° 0 mm 3 mps 750 mmHg 49%
    10:00 -2°C° 0 mm 3 mps 751 mmHg 51%
    11:00 -1°C° 0 mm 3 mps 751 mmHg 54%
    12:00 -2°C° 0 mm 4 mps 751 mmHg 56%
    13:00 -1°C° 0 mm 3 mps 752 mmHg 60%
    14:00 0°C° 0 mm 3 mps 752 mmHg 64%
    15:00 0°C° 0 mm 3 mps 752 mmHg 69%
    16:00 -1°C° 0 mm 3 mps 752 mmHg 69%
    17:00 -2°C° 0 mm 3 mps 753 mmHg 69%
    18:00 -2°C° 0 mm 3 mps 753 mmHg 69%
    19:00 -4°C° 0 mm 3 mps 753 mmHg 67%
    20:00 -4°C° 0 mm 3 mps 754 mmHg 66%
    21:00 -4°C° 0 mm 3 mps 754 mmHg 64%
    22:00 -4°C° 0 mm 3 mps 754 mmHg 69%
    23:00 -4°C° 0 mm 3 mps 754 mmHg 74%
    Show more